Regional Weather Roundup
Issued by NWS

Home | Current Version | Previous Version | Text Only | Print | Product List | Glossary On
Versions: 1 2 3 4 5 6 7 8 9 10 11 12 13 14 15 16 17 18 19 20 21 22 23 24 25 26 27
000
ASUS44 KBMX 191010
RWRAL

ALABAMA REGIONAL WEATHER ROUNDUP
NATIONAL WEATHER SERVICE BIRMINGHAM AL
500 AM CDT SAT APR 19 2014

NOTE: "FAIR" INDICATES FEW OR NO CLOUDS BELOW 12,000 FEET
WITH NO SIGNIFICANT WEATHER AND/OR OBSTRUCTIONS TO VISIBILITY.

THE REMARK "TC" DENOTES TEMPERATURE IN DEGREES CELSIUS.

ALZ001>011-014-016>018-020-191100-
NORTH ALABAMA

CITY           SKY/WX    TMP DP  RH WIND       PRES   REMARKS
MUSCLE SHOALS  PTCLDY    49  44  83 NW3       30.16S
HUNTSVILLE     CLOUDY    51  47  86 CALM      30.13F
DECATUR        CLOUDY    51  48  89 N5        30.14F
HALEYVILLE     FAIR      48  47  97 N5        30.17S
GADSDEN        NOT AVBL
$$

ALZ012-013-022-023-030>036-040>044-191100-
WEST CENTRAL ALABAMA

CITY           SKY/WX    TMP DP  RH WIND       PRES   REMARKS
TUSCALOOSA     CLOUDY    53  49  86 CALM      30.13S
$$

ALZ015-024>027-033>036-040>044-191100-
CENTRAL ALABAMA

CITY           SKY/WX    TMP DP  RH WIND       PRES   REMARKS
BIRMINGHAM     CLOUDY    52  50  93 CALM      30.13F
MONTGOMERY     RAIN      54  52  93 N13G21    30.07S FOG
SHELBY CO ARPT CLOUDY    53  51  93 N5        30.10F
MAXWELL AFB    CLOUDY    59  57  94 N12       30.07S
GREENVILLE     LGT RAIN  53  51  93 N8        30.05S FOG
$$

ALZ019-021-028-029-037-038-045>048-191100-
EAST CENTRAL ALABAMA

CITY           SKY/WX    TMP DP  RH WIND       PRES   REMARKS
ANNISTON       CLOUDY    52  50  93 CALM      30.10S
ALEXANDER CITY MOCLDY    55  50  82 N9        30.08S
AUBURN         CLOUDY    52  48  87 N10G18    30.06S
$$

ALZ051>064-191100-
SOUTHWEST ALABAMA

CITY           SKY/WX    TMP DP  RH WIND       PRES   REMARKS
MOBILE         PTCLDY    53  52  96 N14G21    30.08F
BROOKLEY FIELD PTCLDY    55  52  89 NW15      30.07F
EVERGREEN      CLOUDY    54  50  86 N7        30.08S
$$

ALZ049-050-065>069-191100-
SOUTHEAST ALABAMA

CITY           SKY/WX    TMP DP  RH WIND       PRES   REMARKS
DOTHAN         CLOUDY    53  51  93 N10       30.01S
OZARK          DRIZZLE   54  52  94 N9        29.99S
TROY           CLOUDY    54  50  86 N10G24    30.04S
EUFAULA        CLOUDY    54  52  93 VRB5      29.99S FOG
$$



USA.gov is the U.S. government's official web portal to all federal, state and local government web resources and services.